• In Czech Republic
  • List of Countries
  • For 7 days
  • Water Temperature
  • Satellite Maps
  • Weather Map
  • Weather Widgets
  • user-avatar
    Login

    Hourly Weather Fredericton

    Today, 24 September, Monday

    Time Temperature Precipitation Wind Pressure Humidity
    00:00 +6°C° 0 mm 2 mps 769 mmHg 58%
    01:00 +5°C° 0 mm 2 mps 770 mmHg 59%
    02:00 +4°C° 0 mm 2 mps 771 mmHg 61%
    03:00 +3°C° 0 mm 2 mps 771 mmHg 62%
    04:00 +2°C° 0 mm 2 mps 772 mmHg 63%
    05:00 +1°C° 0 mm 2 mps 772 mmHg 64%
    06:00 +2°C° 0 mm 2 mps 773 mmHg 60%
    07:00 +3°C° 0 mm 2 mps 774 mmHg 56%
    08:00 +4°C° 0 mm 2 mps 775 mmHg 52%
    09:00 +6°C° 0 mm 2 mps 775 mmHg 45%
    10:00 +8°C° 0 mm 2 mps 775 mmHg 39%
    11:00 +10°C° 0 mm 2 mps 775 mmHg 32%
    12:00 +12°C° 0 mm 2 mps 775 mmHg 30%
    13:00 +13°C° 0 mm 2 mps 775 mmHg 28%
    14:00 +14°C° 0 mm 2 mps 775 mmHg 26%
    15:00 +14°C° 0 mm 1 mps 775 mmHg 31%
    16:00 +14°C° 0 mm 1 mps 775 mmHg 35%
    17:00 +13°C° 0 mm 1 mps 774 mmHg 39%
    18:00 +11°C° 0 mm 1 mps 775 mmHg 44%
    19:00 +7°C° 0 mm 0 mps 776 mmHg 48%
    20:00 +5°C° 0 mm 0 mps 776 mmHg 53%
    21:00 +4°C° 0 mm 0 mps 777 mmHg 54%
    22:00 +4°C° 0 mm 0 mps 777 mmHg 56%
    23:00 +3°C° 0 mm 0 mps 777 mmHg 58%

    Tomorrow, 25 September, Tuesday

    Time Temperature Precipitation Wind Pressure Humidity
    00:00 +3°C° 0 mm 0 mps 777 mmHg 59%
    01:00 +2°C° 0 mm 0 mps 777 mmHg 61%
    02:00 +3°C° 0 mm 1 mps 777 mmHg 62%
    03:00 +3°C° 0 mm 1 mps 777 mmHg 64%
    04:00 +3°C° 0 mm 1 mps 777 mmHg 66%
    05:00 +3°C° 0 mm 1 mps 777 mmHg 68%
    06:00 +4°C° 0 mm 1 mps 777 mmHg 65%
    07:00 +6°C° 0 mm 1 mps 777 mmHg 63%
    08:00 +6°C° 0 mm 2 mps 777 mmHg 61%
    09:00 +9°C° 0 mm 2 mps 776 mmHg 53%
    10:00 +11°C° 0 mm 3 mps 776 mmHg 46%
    11:00 +13°C° 0 mm 4 mps 775 mmHg 39%
    12:00 +14°C° 0 mm 4 mps 775 mmHg 38%
    13:00 +14°C° 0 mm 4 mps 774 mmHg 38%
    14:00 +15°C° 0 mm 5 mps 773 mmHg 38%
    15:00 +14°C° 0 mm 4 mps 772 mmHg 45%
    16:00 +14°C° 0 mm 4 mps 771 mmHg 53%
    17:00 +13°C° 0 mm 4 mps 771 mmHg 60%
    18:00 +12°C° 0 mm 4 mps 770 mmHg 65%
    19:00 +12°C° 0 mm 4 mps 770 mmHg 70%
    20:00 +11°C° 0 mm 4 mps 769 mmHg 76%
    21:00 +11°C° 0.6 mm 4 mps 769 mmHg 81%
    22:00 +12°C° 0.6 mm 4 mps 768 mmHg 87%
    23:00 +12°C° 0.6 mm 5 mps 767 mmHg 93%

    Day after tomorrow, 26 September, Wednesday

    Time Temperature Precipitation Wind Pressure Humidity
    00:00 +12°C° 1.2 mm 5 mps 766 mmHg 94%
    01:00 +13°C° 1.2 mm 4 mps 765 mmHg 95%
    02:00 +13°C° 1.2 mm 4 mps 764 mmHg 96%
    03:00 +14°C° 1.1 mm 4 mps 763 mmHg 96%
    04:00 +14°C° 1.1 mm 4 mps 762 mmHg 97%
    05:00 +15°C° 1.1 mm 5 mps 761 mmHg 97%
    06:00 +17°C° 0.4 mm 4 mps 761 mmHg 97%
    07:00 +18°C° 0.4 mm 4 mps 760 mmHg 97%
    08:00 +18°C° 0.4 mm 4 mps 760 mmHg 97%
    09:00 +19°C° 0.1 mm 4 mps 759 mmHg 96%
    10:00 +20°C° 0.1 mm 4 mps 759 mmHg 96%
    11:00 +20°C° 0.1 mm 4 mps 758 mmHg 95%
    12:00 +20°C° 0.1 mm 4 mps 758 mmHg 94%
    13:00 +21°C° 0.1 mm 5 mps 757 mmHg 94%
    14:00 +21°C° 0.1 mm 5 mps 756 mmHg 93%
    15:00 +21°C° 0.2 mm 5 mps 756 mmHg 93%
    16:00 +21°C° 0.2 mm 5 mps 756 mmHg 93%
    17:00 +21°C° 0.2 mm 4 mps 755 mmHg 94%
    18:00 +21°C° 1.1 mm 5 mps 755 mmHg 95%
    19:00 +21°C° 1.1 mm 5 mps 755 mmHg 95%
    20:00 +21°C° 1.1 mm 5 mps 754 mmHg 96%
    21:00 +21°C° 0.3 mm 5 mps 754 mmHg 96%
    22:00 +21°C° 0.3 mm 5 mps 753 mmHg 96%
    23:00 +21°C° 0.3 mm 5 mps 753 mmHg 96%

    27 September, Thursday

    Time Temperature Precipitation Wind Pressure Humidity
    00:00 +21°C° 0.3 mm 5 mps 752 mmHg 96%
    01:00 +21°C° 0.3 mm 5 mps 752 mmHg 96%
    02:00 +21°C° 0.3 mm 4 mps 752 mmHg 96%
    03:00 +19°C° 0.6 mm 5 mps 753 mmHg 95%
    04:00 +17°C° 0.6 mm 5 mps 754 mmHg 94%
    05:00 +15°C° 0.6 mm 5 mps 754 mmHg 92%
    06:00 +14°C° 0.1 mm 5 mps 756 mmHg 90%
    07:00 +12°C° 0.1 mm 4 mps 757 mmHg 87%
    08:00 +10°C° 0.1 mm 4 mps 759 mmHg 85%
    09:00 +12°C° 0 mm 4 mps 760 mmHg 75%
    10:00 +13°C° 0 mm 4 mps 760 mmHg 64%
    11:00 +16°C° 0 mm 3 mps 761 mmHg 54%
    12:00 +17°C° 0 mm 3 mps 761 mmHg 51%
    13:00 +18°C° 0 mm 3 mps 761 mmHg 48%
    14:00 +19°C° 0 mm 3 mps 762 mmHg 45%
    15:00 +18°C° 0 mm 2 mps 762 mmHg 50%
    16:00 +18°C° 0 mm 2 mps 762 mmHg 55%
    17:00 +19°C° 0 mm 1 mps 763 mmHg 59%
    18:00 +16°C° 0 mm 1 mps 763 mmHg 64%
    19:00 +14°C° 0 mm 1 mps 764 mmHg 69%
    20:00 +12°C° 0 mm 1 mps 764 mmHg 74%
    21:00 +11°C° 0 mm 1 mps 765 mmHg 76%
    22:00 +10°C° 0 mm 1 mps 765 mmHg 79%
    23:00 +9°C° 0 mm 1 mps 765 mmHg 81%

    28 September, Friday

    Time Temperature Precipitation Wind Pressure Humidity
    00:00 +8°C° 0 mm 2 mps 765 mmHg 81%
    01:00 +8°C° 0 mm 2 mps 765 mmHg 82%
    02:00 +8°C° 0 mm 2 mps 765 mmHg 82%
    03:00 +7°C° 0 mm 2 mps 765 mmHg 83%
    04:00 +7°C° 0 mm 2 mps 765 mmHg 83%
    05:00 +7°C° 0 mm 2 mps 765 mmHg 84%
    06:00 +8°C° 0 mm 2 mps 765 mmHg 81%
    07:00 +9°C° 0 mm 2 mps 764 mmHg 79%
    08:00 +10°C° 0 mm 3 mps 764 mmHg 77%
    09:00 +12°C° 0 mm 2 mps 764 mmHg 75%
    10:00 +13°C° 0 mm 2 mps 763 mmHg 74%
    11:00 +14°C° 0 mm 2 mps 763 mmHg 72%
    12:00 +14°C° 0.3 mm 2 mps 762 mmHg 78%
    13:00 +14°C° 0.3 mm 2 mps 761 mmHg 83%
    14:00 +13°C° 0.3 mm 2 mps 761 mmHg 89%
    15:00 +14°C° 0 mm 1 mps 760 mmHg 89%
    16:00 +14°C° 0 mm 1 mps 760 mmHg 88%
    17:00 +14°C° 0 mm 1 mps 759 mmHg 87%
    18:00 +14°C° 0.1 mm 1 mps 759 mmHg 90%
    19:00 +13°C° 0.1 mm 1 mps 759 mmHg 92%
    20:00 +12°C° 0.1 mm 1 mps 758 mmHg 95%
    21:00 +13°C° 0.3 mm 1 mps 758 mmHg 95%
    22:00 +13°C° 0.3 mm 1 mps 757 mmHg 96%
    23:00 +13°C° 0.3 mm 1 mps 757 mmHg 96%

    29 September, Saturday

    Time Temperature Precipitation Wind Pressure Humidity
    00:00 +13°C° 0.3 mm 2 mps 756 mmHg 97%
    01:00 +13°C° 0.3 mm 2 mps 756 mmHg 97%
    02:00 +13°C° 0.3 mm 2 mps 755 mmHg 97%
    03:00 +12°C° 0 mm 3 mps 756 mmHg 97%
    04:00 +12°C° 0 mm 3 mps 756 mmHg 96%
    05:00 +12°C° 0 mm 3 mps 756 mmHg 95%
    06:00 +12°C° 0 mm 4 mps 756 mmHg 93%
    07:00 +11°C° 0 mm 4 mps 757 mmHg 91%
    08:00 +11°C° 0 mm 4 mps 757 mmHg 88%
    09:00 +12°C° 0 mm 5 mps 758 mmHg 78%
    10:00 +13°C° 0 mm 5 mps 758 mmHg 68%
    11:00 +15°C° 0 mm 5 mps 758 mmHg 58%
    12:00 +15°C° 0 mm 5 mps 758 mmHg 53%
    13:00 +15°C° 0 mm 5 mps 759 mmHg 48%
    14:00 +16°C° 0 mm 5 mps 759 mmHg 42%
    15:00 +15°C° 0 mm 5 mps 759 mmHg 45%
    16:00 +14°C° 0 mm 4 mps 760 mmHg 48%
    17:00 +14°C° 0 mm 4 mps 761 mmHg 51%
    18:00 +12°C° 0 mm 3 mps 761 mmHg 57%
    19:00 +10°C° 0 mm 3 mps 762 mmHg 63%
    20:00 +8°C° 0 mm 3 mps 763 mmHg 69%
    21:00 +8°C° 0 mm 2 mps 763 mmHg 72%
    22:00 +7°C° 0 mm 2 mps 764 mmHg 75%
    23:00 +6°C° 0 mm 2 mps 764 mmHg 78%
    Show more

    3.3.7123123